| time (UTC) | temp F | wind direction | speed MPH | gust MPH | rain 1hr in | rain 24hr in | rain mn in | humidity % | barometer mb |
| 20260506073045 | 68 | 250 | 4.0 | 8.0 | 0.00 | 0.00 | 0.00 | 27 | 999.9 |
| 20260506071552 | 68 | 236 | 3.0 | 8.0 | 0.00 | 0.00 | 0.00 | 27 | 999.7 |
| 20260506061531 | 68 | 211 | 3.0 | 7.0 | 0.00 | 0.00 | 0.00 | 28 | 999.5 |
| 20260506044525 | 70 | 103 | 2.0 | 3.0 | 0.00 | 0.00 | 0.00 | 26 | 999.2 |
| 20260506043025 | 71 | 339 | 1.0 | 3.0 | 0.00 | 0.00 | 0.00 | 25 | 999.3 |
| 20260506041528 | 70 | 339 | 1.0 | 3.0 | 0.00 | 0.00 | 0.00 | 25 | 999.0 |
| 20260506040025 | 70 | 339 | 0.0 | 0.0 | 0.00 | 0.00 | 0.00 | 25 | 998.6 |
| 20260506034520 | 70 | 339 | 0.0 | 0.0 | 0.00 | 0.00 | 0.00 | 25 | 998.7 |
| 20260506033026 | 71 | 339 | 0.0 | 0.0 | 0.00 | 0.00 | 0.00 | 24 | 998.1 |
| 20260506031524 | 71 | 339 | 0.0 | 2.0 | 0.00 | 0.00 | 0.00 | 25 | 997.9 |
| 20260506030023 | 71 | 339 | 1.0 | 4.0 | 0.00 | 0.00 | 0.00 | 25 | 997.8 |
| 20260506024518 | 71 | 322 | 2.0 | 5.0 | 0.00 | 0.00 | 0.00 | 25 | 997.6 |
| 20260506023018 | 71 | 282 | 3.0 | 7.0 | 0.00 | 0.00 | 0.00 | 24 | 997.8 |
| 20260506021517 | 72 | 313 | 2.0 | 6.0 | 0.00 | 0.00 | 0.00 | 24 | 997.2 |
| 20260506020022 | 72 | 281 | 4.0 | 8.0 | 0.00 | 0.00 | 0.00 | 23 | 997.4 |
| 20260506014519 | 72 | 330 | 1.0 | 3.0 | 0.00 | 0.00 | 0.00 | 23 | 997.0 |
| 20260506013025 | 73 | 347 | 1.0 | 2.0 | 0.00 | 0.00 | 0.00 | 22 | 997.2 |
| 20260506011514 | 73 | 322 | 1.0 | 8.0 | 0.00 | 0.00 | 0.00 | 22 | 996.9 |
| 20260506010023 | 74 | 323 | 6.0 | 11.0 | 0.00 | 0.00 | 0.00 | 22 | 996.9 |
| 20260506004519 | 74 | 319 | 5.0 | 13.0 | 0.00 | 0.00 | 0.00 | 22 | 997.0 |
| 20260506003014 | 75 | 306 | 7.0 | 14.0 | 0.00 | 0.00 | 0.00 | 21 | 996.8 |
| 20260506001514 | 77 | 315 | 9.0 | 16.0 | 0.00 | 0.00 | 0.00 | 19 | 996.6 |
| 20260506000018 | 78 | 285 | 3.0 | 10.0 | 0.00 | 0.00 | 0.00 | 18 | 996.7 |
| 20260505234517 | 80 | 269 | 7.0 | 13.0 | 0.00 | 0.00 | 0.00 | 18 | 996.5 |
| 20260505233009 | 80 | 291 | 7.0 | 14.0 | 0.00 | 0.00 | 0.00 | 18 | 996.6 |
| 20260505231508 | 79 | 263 | 7.0 | 14.0 | 0.00 | 0.00 | 0.00 | 18 | 996.5 |
| 20260505230009 | 77 | 275 | 8.0 | 15.0 | 0.00 | 0.00 | 0.00 | 18 | 996.8 |
| 20260505224507 | 78 | 296 | 9.0 | 14.0 | 0.00 | 0.00 | 0.00 | 18 | 996.8 |
| 20260505223008 | 77 | 298 | 6.0 | 14.0 | 0.00 | 0.00 | 0.00 | 19 | 996.9 |
| 20260505221503 | 78 | 298 | 8.0 | 14.0 | 0.00 | 0.00 | 0.00 | 18 | 996.8 |
| 20260505220006 | 77 | 282 | 12.0 | 20.0 | 0.00 | 0.00 | 0.00 | 18 | 997.1 |
| 20260505214502 | 78 | 292 | 11.0 | 17.0 | 0.00 | 0.00 | 0.00 | 17 | 997.2 |
| 20260505213000 | 79 | 262 | 8.0 | 17.0 | 0.00 | 0.00 | 0.00 | 18 | 997.2 |
| 20260505211624 | 80 | 288 | 10.0 | 16.0 | 0.00 | 0.00 | 0.00 | 18 | 997.2 |
| 20260505210108 | 81 | 297 | 9.0 | 16.0 | 0.00 | 0.00 | 0.00 | 19 | 997.4 |
| 20260505204559 | 82 | 346 | 10.0 | 17.0 | 0.00 | 0.00 | 0.00 | 19 | 997.3 |
| 20260505203058 | 83 | 246 | 12.0 | 18.0 | 0.00 | 0.00 | 0.00 | 18 | 997.7 |
| 20260505201605 | 81 | 290 | 9.0 | 17.0 | 0.00 | 0.00 | 0.00 | 19 | 997.9 |
| 20260505200053 | 81 | 304 | 10.0 | 17.0 | 0.00 | 0.00 | 0.00 | 20 | 998.0 |
| 20260505194554 | 80 | 295 | 10.0 | 21.0 | 0.00 | 0.00 | 0.00 | 20 | 998.3 |
| 20260505193052 | 80 | 263 | 8.0 | 21.0 | 0.00 | 0.00 | 0.00 | 20 | 998.2 |
| 20260505191555 | 79 | 266 | 9.0 | 16.0 | 0.00 | 0.00 | 0.00 | 20 | 998.2 |
| 20260505184556 | 77 | 226 | 7.0 | 16.0 | 0.00 | 0.00 | 0.00 | 22 | 998.7 |
| 20260505183050 | 77 | 279 | 12.0 | 17.0 | 0.00 | 0.00 | 0.00 | 21 | 998.7 |
| 20260505181541 | 77 | 225 | 10.0 | 18.0 | 0.00 | 0.00 | 0.00 | 22 | 998.9 |
| 20260505180042 | 76 | 267 | 11.0 | 15.0 | 0.00 | 0.00 | 0.00 | 23 | 999.0 |
| 20260505174542 | 75 | 307 | 5.0 | 14.0 | 0.00 | 0.00 | 0.00 | 24 | 999.0 |
| 20260505173041 | 75 | 275 | 5.0 | 16.0 | 0.00 | 0.00 | 0.00 | 25 | 999.2 |
| 20260505171540 | 75 | 295 | 6.0 | 13.0 | 0.00 | 0.00 | 0.00 | 25 | 999.4 |
| 20260505170036 | 75 | 238 | 9.0 | 14.0 | 0.00 | 0.00 | 0.00 | 25 | 999.3 |
| 20260505164537 | 74 | 300 | 9.0 | 14.0 | 0.00 | 0.00 | 0.00 | 25 | 999.3 |
| 20260505163032 | 74 | 328 | 10.0 | 17.0 | 0.00 | 0.00 | 0.00 | 25 | 999.3 |
| 20260505161530 | 74 | 244 | 11.0 | 17.0 | 0.00 | 0.00 | 0.00 | 25 | 999.2 |
| 20260505153030 | 73 | 267 | 8.0 | 13.0 | 0.00 | 0.00 | 0.00 | 26 | 998.8 |
| 20260505151523 | 71 | 253 | 8.0 | 13.0 | 0.00 | 0.00 | 0.00 | 27 | 998.7 |
| 20260505124519 | 65 | 265 | 5.0 | 9.0 | 0.00 | 0.00 | 0.00 | 32 | 997.5 |
| 20260505123020 | 64 | 261 | 4.0 | 10.0 | 0.00 | 0.00 | 0.00 | 32 | 997.4 |
| 20260505121513 | 63 | 267 | 4.0 | 8.0 | 0.00 | 0.00 | 0.00 | 32 | 997.5 |
| 20260505120012 | 64 | 273 | 4.0 | 10.0 | 0.00 | 0.00 | 0.00 | 32 | 997.4 |
| 20260505114509 | 64 | 272 | 4.0 | 7.0 | 0.00 | 0.00 | 0.00 | 32 | 997.3 |
| 20260505113008 | 65 | 267 | 3.0 | 6.0 | 0.00 | 0.00 | 0.00 | 31 | 997.1 |
| 20260505111509 | 65 | 264 | 4.0 | 7.0 | 0.00 | 0.00 | 0.00 | 30 | 997.2 |
| 20260505101558 | 66 | 263 | 5.0 | 8.0 | 0.00 | 0.00 | 0.00 | 28 | 997.4 |
| 20260505100101 | 67 | 248 | 4.0 | 8.0 | 0.00 | 0.00 | 0.00 | 28 | 997.2 |
| 20260505094555 | 67 | 278 | 4.0 | 7.0 | 0.00 | 0.00 | 0.00 | 27 | 997.3 |
| 20260505093055 | 67 | 303 | 4.0 | 8.0 | 0.00 | 0.00 | 0.00 | 28 | 997.1 |
| 20260505091552 | 67 | 291 | 4.0 | 6.0 | 0.00 | 0.00 | 0.00 | 28 | 997.1 |
| 20260505090105 | 67 | 300 | 3.0 | 7.0 | 0.00 | 0.00 | 0.00 | 28 | 997.3 |
| 20260505084547 | 68 | 281 | 4.0 | 9.0 | 0.00 | 0.00 | 0.00 | 27 | 997.3 |
| 20260505083044 | 69 | 279 | 4.0 | 8.0 | 0.00 | 0.00 | 0.00 | 26 | 997.4 |
| 20260505081547 | 69 | 278 | 2.0 | 7.0 | 0.00 | 0.00 | 0.00 | 26 | 997.5 |
| 20260505080050 | 69 | 290 | 3.0 | 6.0 | 0.00 | 0.00 | 0.00 | 26 | 997.6 |
| 20260505074539 | 69 | 275 | 3.0 | 5.0 | 0.00 | 0.00 | 0.00 | 26 | 997.7 |